Location: Asbacherhof
(48.8543°N, 10.7903°E)
Time: 23:20:31
(UTC+00:00)

NOSS 0 Rocket - Pass Details

Date: 26 May 2022
Orbit: 935 x 954 km, 70.0° (Epoch: 26 June)

Event Time Altitude Azimuth Distance (km) Brightness Sun altitude
Exits shadow 00:29:23 28° 218° (SW) 1,722 4.8 -18.1°
Maximum altitude 00:32:55 78° 301° (WNW) 979 4.0 -17.9°
Drops below altitude 10° 00:39:12 10° 28° (NNE) 2,690 7.6 -17.5°
Sets 00:41:45 0° 30° (NNE) 3,638 8.7 -17.4°
